FW9558 Weather Reports


Display with metric or nautical units.
time (UTC)temp
F
wind
direction
speed
MPH
gust
MPH
rain 1hr
in
rain 24hr
in
rain mn
in
humidity
%
barometer
mb
20260904120052 83 236 2.0 10.0 0.00 0.00 0.00 41 1020.5
20260904114547 83 225 1.0 10.0 0.00 0.00 0.00 40 1020.5
20260904113044 83 0 2.0 10.0 0.00 0.00 0.00 42 1020.6
20260904111543 82 313 1.0 7.0 0.00 0.00 0.00 43 1020.8
20260904110046 81 325 2.0 7.0 0.00 0.00 0.00 46 1020.8
20260904104543 81 250 1.0 11.0 0.00 0.00 0.00 50 1020.9
20260904103043 80 288 0.0 8.0 0.00 0.00 0.00 54 1020.8
20260904101603 80 0 1.0 7.0 0.00 0.00 0.00 57 1021.0
20260904100050 79 0 1.0 8.0 0.00 0.00 0.00 57 1020.9
20260904094545 79 0 0.0 2.0 0.00 0.00 0.00 62 1021.0
20260904093043 77 0 0.0 6.0 0.00 0.00 0.00 64 1021.1
20260904091550 76 0 0.0 6.0 0.00 0.00 0.00 66 1021.1
20260904090047 74 0 0.0 0.0 0.00 0.00 0.00 75 1021.0
20260904084543 73 0 0.0 0.0 0.00 0.00 0.00 80 1021.1
20260904083053 70 0 0.0 0.0 0.00 0.00 0.00 85 1020.9
20260904081547 67 0 0.0 0.0 0.00 0.00 0.00 89 1020.8
20260904080045 66 0 0.0 0.0 0.00 0.00 0.00 91 1020.7
20260904074544 65 0 0.0 0.0 0.00 0.00 0.00 92 1020.9
20260904073048 63 0 0.0 0.0 0.00 0.00 0.00 93 1020.9
20260904071550 62 0 0.0 0.0 0.00 0.00 0.00 94 1020.9
20260904070047 61 0 0.0 0.0 0.00 0.00 0.00 93 1020.9
20260904064543 61 0 0.0 0.0 0.00 0.00 0.00 94 1020.6
20260904063051 60 0 0.0 0.0 0.00 0.00 0.00 94 1020.7
20260904061549 60 0 0.0 0.0 0.00 0.00 0.00 94 1020.7
20260904060045 60 0 0.0 0.0 0.00 0.00 0.00 94 1020.5
20260904054546 59 0 0.0 0.0 0.00 0.00 0.00 93 1020.5
20260904053044 59 0 0.0 0.0 0.00 0.00 0.00 93 1020.5
20260904051547 59 0 0.0 0.0 0.00 0.00 0.00 93 1020.4
20260904050043 59 0 0.0 0.0 0.00 0.00 0.00 92 1020.4
20260904044542 60 0 0.0 0.0 0.00 0.00 0.00 92 1020.3
20260904043052 60 0 0.0 0.0 0.00 0.00 0.00 92 1020.3
20260904041545 60 0 0.0 0.0 0.00 0.00 0.00 92 1020.3
20260904040046 60 0 0.0 0.0 0.00 0.00 0.00 92 1020.5
20260904034550 60 0 0.0 0.0 0.00 0.00 0.00 92 1020.5
20260904033048 61 0 0.0 0.0 0.00 0.00 0.00 91 1020.6
20260904031543 61 0 0.0 0.0 0.00 0.00 0.00 91 1020.7
20260904030044 61 0 0.0 0.0 0.00 0.00 0.00 91 1020.7
20260904024548 61 0 0.0 0.0 0.00 0.00 0.00 91 1020.8
20260904023057 62 0 0.0 0.0 0.00 0.00 0.00 90 1021.0
20260904021545 62 0 0.0 0.0 0.00 0.00 0.00 90 1021.1
20260904020042 62 0 0.0 0.0 0.00 0.00 0.00 89 1021.3
20260904014558 62 0 0.0 0.0 0.00 0.00 0.00 89 1021.6
20260904013051 63 0 0.0 0.0 0.00 0.00 0.00 88 1021.5
20260904011551 63 0 0.0 0.0 0.00 0.00 0.00 88 1021.7
20260904010051 64 0 0.0 0.0 0.00 0.00 0.00 87 1021.9
20260904004546 64 0 0.0 0.0 0.00 0.00 0.00 87 1021.9
20260904003043 64 0 0.0 0.0 0.00 0.00 0.00 86 1021.8
20260904001547 64 0 0.0 0.0 0.00 0.00 0.00 86 1022.0
20260904000050 65 0 0.0 0.0 0.00 0.00 0.00 85 1022.1
20260903234544 65 0 0.0 0.0 0.00 0.00 0.00 85 1022.2
20260903233055 65 0 0.0 0.0 0.00 0.00 0.00 84 1022.3
20260903231552 66 0 0.0 0.0 0.00 0.00 0.00 83 1022.5
20260903230051 66 0 0.0 0.0 0.00 0.00 0.00 82 1022.5
20260903224610 67 0 0.0 0.0 0.00 0.00 0.00 81 1022.6
20260903223047 67 0 0.0 0.0 0.00 0.00 0.00 80 1022.8
20260903221544 68 0 0.0 0.0 0.00 0.00 0.00 78 1022.7
20260903220047 68 0 0.0 0.0 0.00 0.00 0.00 78 1022.9
20260903214606 69 0 0.0 0.0 0.00 0.00 0.00 78 1022.9
20260903213058 69 0 0.0 0.0 0.00 0.00 0.00 76 1022.9
20260903211544 70 0 0.0 0.0 0.00 0.00 0.00 75 1023.0
20260903210103 70 0 0.0 0.0 0.00 0.00 0.00 74 1023.0
20260903204548 70 0 0.0 0.0 0.00 0.00 0.00 73 1023.2
20260903203104 71 0 0.0 0.0 0.00 0.00 0.00 72 1023.3
20260903201547 71 0 0.0 0.0 0.00 0.00 0.00 71 1023.3
20260903200051 72 0 0.0 0.0 0.00 0.00 0.00 70 1023.1
20260903194543 73 0 0.0 0.0 0.00 0.00 0.00 69 1023.1
20260903193047 73 0 0.0 3.0 0.00 0.00 0.00 68 1023.2
20260903191542 74 275 0.0 3.0 0.00 0.00 0.00 68 1023.2
20260903190044 75 282 1.0 4.0 0.00 0.00 0.00 66 1023.1
20260903184549 76 281 0.0 6.0 0.00 0.00 0.00 65 1023.1
20260903183054 77 0 0.0 4.0 0.00 0.00 0.00 63 1023.1
20260903181549 78 0 0.0 6.0 0.00 0.00 0.00 61 1023.1
20260903180046 80 267 1.0 6.0 0.00 0.00 0.00 58 1023.3
20260903174544 81 290 2.0 6.0 0.00 0.00 0.00 56 1023.3
20260903173047 82 342 0.0 3.0 0.00 0.00 0.00 55 1023.2
20260903171549 82 278 1.0 6.0 0.00 0.00 0.00 55 1023.2
20260903170046 82 269 1.0 7.0 0.00 0.00 0.00 55 1023.3
20260903164550 83 308 1.0 7.0 0.00 0.00 0.00 55 1023.4
20260903163052 83 294 1.0 7.0 0.00 0.00 0.00 55 1023.4
20260903161546 83 267 1.0 7.0 0.00 0.00 0.00 55 1023.5
20260903160045 82 247 1.0 7.0 0.00 0.00 0.00 55 1023.6
20260903154605 82 229 2.0 8.0 0.00 0.00 0.00 55 1023.8
20260903153044 83 232 1.0 6.0 0.00 0.00 0.00 53 1023.7
20260903151551 83 257 1.0 5.0 0.00 0.00 0.00 55 1024.0
20260903150049 83 289 3.0 7.0 0.00 0.00 0.00 55 1024.1
20260903144545 83 225 1.0 7.0 0.00 0.00 0.00 54 1024.2
20260903143102 82 0 1.0 3.0 0.00 0.00 0.00 56 1024.4
20260903141557 82 272 3.0 8.0 0.00 0.00 0.00 55 1024.5
20260903140046 81 189 2.0 10.0 0.00 0.00 0.00 56 1024.4
20260903134552 81 284 1.0 7.0 0.00 0.00 0.00 57 1024.6
20260903133047 80 0 2.0 7.0 0.00 0.00 0.00 59 1024.8
20260903131546 79 253 2.0 9.0 0.00 0.00 0.00 59 1024.8
20260903130043 79 294 0.0 7.0 0.00 0.00 0.00 60 1024.8
20260903124547 79 200 2.0 6.0 0.00 0.00 0.00 61 1025.0
20260903123044 78 246 1.0 7.0 0.00 0.00 0.00 61 1025.1
20260903121544 77 283 1.0 7.0 0.00 0.00 0.00 62 1025.3